Time,TemperatureF,DewpointF,PressureIn,WindDirection,WindDirectionDegrees,WindSpeedMPH,WindSpeedGustMPH,Humidity,HourlyPrecipIn,Conditions,Clouds,dailyrainin,SoftwareType,DateUTC
2013-07-24 00:52:00,69.0,59.0,-100.00,WNW,297,7.0,12.0,72,0.00,,,-99.99,,2013-07-24 04:52:00,
2013-07-24 01:02:00,69.0,59.0,-100.00,NW,309,9.0,12.0,72,0.00,,,-99.99,,2013-07-24 05:02:00,
2013-07-24 01:22:00,68.0,57.0,-100.00,WNW,289,6.0,12.0,71,0.00,,,-99.99,,2013-07-24 05:22:00,
2013-07-24 01:43:00,68.0,57.0,-100.00,NW,306,6.0,12.0,71,0.00,,,-99.99,,2013-07-24 05:43:00,
2013-07-24 02:12:00,67.0,57.0,-100.00,NW,306,8.0,12.0,71,0.00,,,-99.99,,2013-07-24 06:12:00,
2013-07-24 02:24:00,67.0,55.0,-100.00,WNW,299,7.0,12.0,71,0.00,,,-99.99,,2013-07-24 06:24:00,
2013-07-24 02:34:00,66.0,55.0,-100.00,WNW,296,7.0,12.0,71,0.00,,,-99.99,,2013-07-24 06:34:00,
2013-07-24 02:43:00,67.0,57.0,-100.00,West,272,7.0,12.0,72,0.00,,,-99.99,,2013-07-24 06:43:00,
2013-07-24 05:12:00,64.0,52.0,-100.00,WNW,290,6.0,12.0,66,0.00,,,-99.99,,2013-07-24 09:12:00,
2013-07-24 05:32:00,63.0,50.0,-100.00,NW,304,6.0,12.0,64,0.00,,,-99.99,,2013-07-24 09:32:00,
2013-07-24 05:53:00,63.0,50.0,-100.00,WSW,249,8.0,12.0,63,0.00,,,-99.99,,2013-07-24 09:53:00,
2013-07-24 06:12:00,65.0,52.0,-100.00,WNW,289,6.0,12.0,63,0.00,,,-99.99,,2013-07-24 10:12:00,
2013-07-24 11:02:00,61.0,48.0,-100.00,WNW,302,7.0,12.0,66,0.00,,,-99.99,,2013-07-24 15:02:00,
2013-07-24 14:52:00,65.0,50.0,-100.00,NW,310,7.0,14.0,59,0.00,,,-99.99,,2013-07-24 18:52:00,
2013-07-24 15:02:00,65.0,48.0,-100.00,NNW,333,9.0,14.0,58,0.00,,,-99.99,,2013-07-24 19:02:00,
2013-07-24 15:12:00,66.0,50.0,-100.00,NW,321,7.0,14.0,59,0.00,,,-99.99,,2013-07-24 19:12:00,
2013-07-24 17:22:00,66.0,50.0,-100.00,NW,312,6.0,14.0,58,0.00,,,-99.99,,2013-07-24 21:22:00,
2013-07-24 17:32:00,66.0,50.0,-100.00,North,355,6.0,14.0,58,0.00,,,-99.99,,2013-07-24 21:32:00,
2013-07-24 17:44:00,67.0,50.0,-100.00,North,360,4.0,14.0,55,0.00,,,-99.99,,2013-07-24 21:44:00,
2013-07-24 17:52:00,69.0,50.0,-100.00,NNW,330,5.0,14.0,54,0.00,,,-99.99,,2013-07-24 21:52:00,
2013-07-24 18:12:00,68.0,52.0,-100.00,NNW,338,6.0,14.0,58,0.00,,,-99.99,,2013-07-24 22:12:00,
2013-07-24 18:22:00,69.0,52.0,-100.00,West,259,6.0,14.0,58,0.00,,,-99.99,,2013-07-24 22:22:00,
2013-07-24 18:32:00,67.0,52.0,-100.00,WNW,295,4.0,14.0,58,0.00,,,-99.99,,2013-07-24 22:32:00,
2013-07-24 18:43:00,69.0,52.0,-100.00,NW,304,2.0,14.0,55,0.00,,,-99.99,,2013-07-24 22:43:00,
2013-07-24 18:53:00,69.0,52.0,-100.00,NW,320,3.0,14.0,55,0.00,,,-99.99,,2013-07-24 22:53:00,
2013-07-24 19:02:00,68.0,50.0,-100.00,NNE,15,2.0,14.0,54,0.00,,,-99.99,,2013-07-24 23:02:00,
2013-07-24 19:12:00,67.0,50.0,-100.00,NNW,344,4.0,14.0,55,0.00,,,-99.99,,2013-07-24 23:12:00,
2013-07-24 19:22:00,67.0,50.0,-100.00,WNW,288,2.0,14.0,55,0.00,,,-99.99,,2013-07-24 23:22:00,
2013-07-24 20:02:00,67.0,50.0,-100.00,NNW,333,2.0,14.0,58,0.00,,,-99.99,,2013-07-25 00:02:00,
2013-07-24 20:12:00,67.0,50.0,-100.00,NW,314,2.0,14.0,59,0.00,,,-99.99,,2013-07-25 00:12:00,
2013-07-24 20:22:00,66.0,50.0,-100.00,North,350,1.0,14.0,58,0.00,,,-99.99,,2013-07-25 00:22:00,
2013-07-24 21:22:00,62.0,52.0,-100.00,West,268,0.0,14.0,73,0.00,,,-99.99,,2013-07-25 01:22:00,
2013-07-24 21:53:00,63.0,54.0,-100.00,SW,230,0.0,1.0,73,0.00,,,-99.99,,2013-07-25 01:53:00,
2013-07-24 22:02:00,61.0,52.0,-100.00,West,278,0.0,1.0,76,0.00,,,-99.99,,2013-07-25 02:02:00,
2013-07-24 22:12:00,61.0,52.0,-100.00,West,278,0.0,1.0,76,0.00,,,-99.99,,2013-07-25 02:12:00,
2013-07-24 23:52:00,58.0,54.0,-100.00,NE,35,0.0,1.0,86,0.00,,,-99.99,,2013-07-25 03:52:00,